BREEZE-M DEB (TANK), 39129

Orbit data source: Space-Track

BREEZE-M DEB (TANK), 39129 is space debris in HEO originally from a launch on Mon, 15 Apr 2013 UTC launched from the Tyuratam Missile And Space Complex (TTMTR). Debris objects in space refer to the collection of defunct objects orbiting the Earth. Examples of debris include non-operational satellites, rocket bodies, and fragments generated from explosions, collisions, or faulty payload assembly.

Loading next visibility...
Identifier
39129, 2013-014C
Orbit
HEO
Country
Flag of CISCIS
Related business
Manufacturer
Khrunichev
Mission
Spacecraft
Bus & Motor
BRIZ TANK, Unknown motor
Mass
~1,000 kg wet, 1,000 kg dry
Launch date (UTC)
2013-04-15 (13 years ago)
Launch vehicle
Unknown
Launch site
Tyuratam Missile And Space Complex (TTMTR)
Object type
Payload
Rocket body
Debris
Shape & HBR
Torus, 2.0 m
Radar Cross Section
8.218 m², Large (>1 m²)

Expand to show TLE details & history
Last TLE update: 1 day ago

TLE from 1 day ago
0 BREEZE-M DEB (TANK)
1 39129U 13014C   25348.57154051  .00004947  00000-0  73166-3 0  9993
2 39129  49.3717 195.5288 5880908 304.2829  13.2716  4.23346110181915
Epoch: 2025-12-14T13:43Z
TLE epoch observation values (Epoch: 2025-12-14T13:43:01.100Z)
Latitude
0.00001°
Longitude
-93.68775°
Altitude
1,564.618 km
Speed
8.7 km/s
True Right ascension
13h 02m 11s
True Declination
0° 00' 00"
Sunlit
Object was in daylight at epoch
Visualization orbit readout
Latitude
Unknown
Longitude
Unknown
Altitude
Unknown
Speed
Unknown
Apparent Right ascension
Unknown
Apparent Declination
Unknown
Sunlit
N/A
Visualization observer readout
Local Sidereal Time
19:02:34
Azimuth
Unknown
Elevation
Unknown
Doppler factor
Unknown
Orbital elements
Apogee altitude
19,256.82 km
Perigee altitude
270.9 km
Semi-major axis
16,141.997 km
Eccentricity
0.58809
Inclination
49.3717°
RAAN
195.5288°
Arg. of periapsis
304.2829°
True anomaly
55.89925°
Mean anomaly
13.2716°
Eccentric anomaly
30.24253°
Mean motion
1.0583 °/min
Orbital period
340.17 mins
BSTAR
0.00073166
Loading maneuver chart data...
Computing Atmospheric mass density...
Loading historical data...
Loading historical data...
Loading historical data...
Loading historical data...
Loading historical data...
Loading historical data...
Loading historical data...
Other satellites on launch #14 in the year 2013 (2013-04-15 UTC)

Documentation

Showing up to 5 results
|